GW6029 Weather Reports


Display with metric or nautical units.
time (UTC)temp
F
wind
direction
speed
MPH
gust
MPH
rain 1hr
in
rain 24hr
in
rain mn
in
humidity
%
barometer
mb
20260906004003 80 103 0.0 0.0 0.00 0.37 0.37 92 1012.1
20260906003459 81 103 0.0 0.0 0.00 0.37 0.37 92 1012.0
20260906002954 81 100 0.0 0.0 0.00 0.37 0.37 91 1011.9
20260906002454 81 98 0.0 0.0 0.00 0.37 0.37 91 1012.0
20260906001949 81 98 0.0 0.0 0.00 0.37 0.37 91 1011.8
20260906001445 81 106 0.0 0.0 0.00 0.37 0.37 91 1011.8
20260906000939 81 99 0.0 0.0 0.00 0.37 0.37 90 1012.0
20260906000435 81 102 0.0 0.0 0.00 0.37 0.37 90 1012.0
20260905235925 82 102 0.0 0.0 0.00 0.37 0.37 89 1012.0
20260905235424 82 100 0.0 0.0 0.00 0.37 0.37 89 1011.9
20260905234919 82 102 0.0 0.0 0.00 0.37 0.37 88 1011.9
20260905234414 82 100 0.0 0.0 0.00 0.37 0.37 88 1011.9
20260905233909 83 109 0.0 0.0 0.00 0.37 0.37 88 1011.7
20260905233404 83 99 0.0 1.0 0.00 0.37 0.37 87 1011.9
20260905232903 83 90 0.0 1.0 0.00 0.37 0.37 87 1011.9
20260905232400 83 95 0.0 0.0 0.00 0.37 0.37 88 1011.8
20260905231855 83 97 0.0 0.0 0.00 0.37 0.37 87 1011.8
20260905231350 83 96 0.0 0.0 0.00 0.37 0.37 88 1011.9
20260905230847 83 104 0.0 0.0 0.00 0.37 0.37 88 1011.9
20260905230344 83 104 0.0 0.0 0.00 0.37 0.37 88 1011.9
20260905225843 83 107 0.0 0.0 0.00 0.37 0.37 88 1011.8
20260905225338 84 95 0.0 0.0 0.00 0.37 0.37 88 1011.7
20260905224833 84 107 0.0 0.0 0.00 0.37 0.37 86 1011.8
20260905224329 85 106 0.0 0.0 0.00 0.37 0.37 85 1011.8
20260905223824 86 107 0.0 0.0 0.00 0.37 0.37 83 1011.7
20260905223321 86 98 0.0 0.0 0.00 0.37 0.37 83 1012.0
20260905222816 86 104 0.0 0.0 0.00 0.37 0.37 81 1012.1
20260905222315 85 100 0.0 1.0 0.00 0.37 0.37 83 1012.1
20260905221811 85 109 0.0 0.0 0.00 0.37 0.37 82 1012.2
20260905221308 86 109 0.0 1.0 0.00 0.37 0.37 80 1012.2
20260905220803 87 103 0.0 0.0 0.00 0.37 0.37 79 1012.1
20260905220259 87 102 0.0 0.0 0.00 0.37 0.37 80 1012.3
20260905215758 87 244 1.0 2.0 0.00 0.37 0.37 77 1012.2
20260905215254 88 146 0.0 1.0 0.00 0.37 0.37 79 1012.1
20260905214750 88 165 1.0 2.0 0.00 0.37 0.37 81 1012.2
20260905214246 88 129 1.0 2.0 0.00 0.37 0.37 81 1012.4
20260905213741 87 96 0.0 0.0 0.00 0.37 0.37 81 1012.4
20260905213237 87 39 1.0 2.0 0.00 0.37 0.37 78 1012.3
20260905212732 86 232 1.0 1.0 0.00 0.37 0.37 81 1012.5
20260905212231 86 111 0.0 1.0 0.00 0.37 0.37 83 1012.5
20260905211730 84 15 0.0 1.0 0.00 0.37 0.37 86 1012.4
20260905211226 84 93 0.0 0.0 0.00 0.37 0.37 86 1012.6
20260905210723 84 104 0.0 2.0 0.00 0.37 0.37 82 1012.6
20260905210222 85 283 2.0 3.0 0.00 0.37 0.37 82 1012.4
20260905205721 85 100 1.0 2.0 0.00 0.37 0.37 87 1012.4
20260905205216 84 164 0.0 3.0 0.00 0.37 0.37 88 1012.4
20260905204717 84 310 3.0 3.0 0.00 0.37 0.37 88 1012.4
20260905204212 84 354 2.0 2.0 0.00 0.37 0.37 93 1012.4
20260905203711 82 112 0.0 2.0 0.00 0.37 0.37 95 1012.3
20260905203207 81 200 1.0 2.0 0.00 0.37 0.37 95 1012.5
20260905202703 80 171 0.0 2.0 0.00 0.37 0.37 96 1012.5
20260905202157 80 185 2.0 2.0 0.00 0.37 0.37 96 1012.6
20260905201653 80 101 0.0 0.0 0.00 0.37 0.37 96 1012.7
20260905201153 80 128 0.0 0.0 0.00 0.37 0.37 96 1012.8
20260905200648 80 95 0.0 0.0 0.07 0.37 0.37 96 1012.9
20260905200144 80 96 0.0 0.0 0.07 0.37 0.37 96 1012.8
20260905195642 80 64 0.0 0.0 0.05 0.36 0.36 96 1013.0
20260905195137 79 91 0.0 0.0 0.12 0.36 0.36 96 1013.2
20260905194632 79 95 0.0 1.0 0.00 0.34 0.34 96 1013.2
20260905194131 78 89 0.0 2.0 0.05 0.34 0.34 95 1013.1
20260905193627 77 103 0.0 0.0 0.17 0.34 0.34 95 1013.2
20260905193126 77 97 0.0 0.0 0.24 0.33 0.33 94 1013.2
20260905192622 77 75 0.0 1.0 0.85 0.31 0.31 94 1013.4
20260905192119 77 116 2.0 2.0 0.83 0.28 0.28 92 1013.5
20260905191617 77 89 1.0 2.0 0.90 0.17 0.17 91 1013.6
20260905191116 79 68 1.0 2.0 0.66 0.12 0.12 88 1013.6
20260905190614 79 78 0.0 2.0 0.05 0.02 0.02 87 1013.5
20260905190114 80 88 1.0 2.0 0.00 0.01 0.01 87 1013.6
20260905185613 82 82 0.0 2.0 0.00 0.01 0.01 88 1013.5
20260905185108 84 95 0.0 1.0 0.07 0.01 0.01 87 1013.8
20260905184602 85 94 0.0 0.0 0.07 0.01 0.01 85 1013.6
20260905184101 86 143 0.0 1.0 0.00 0.00 0.00 78 1013.8
20260905183601 86 265 2.0 4.0 0.00 0.00 0.00 77 1013.7
20260905183056 87 115 0.0 0.0 0.00 0.00 0.00 77 1013.8
20260905182550 87 99 0.0 0.0 0.00 0.00 0.00 77 1013.8
20260905182050 87 87 0.0 0.0 0.00 0.00 0.00 77 1013.8
20260905181544 87 95 0.0 1.0 0.00 0.00 0.00 77 1013.9
20260905181039 87 76 1.0 1.0 0.00 0.00 0.00 77 1013.9
20260905180538 87 132 1.0 1.0 0.00 0.00 0.00 76 1013.9
20260905180034 88 89 0.0 0.0 0.00 0.00 0.00 76 1014.0
20260905175533 89 86 0.0 0.0 0.00 0.00 0.00 73 1014.0
20260905175029 90 94 0.0 0.0 0.00 0.00 0.00 71 1014.1
20260905174524 90 87 0.0 0.0 0.00 0.00 0.00 68 1013.9
20260905174020 91 85 0.0 1.0 0.00 0.00 0.00 68 1014.0
20260905173516 92 85 0.0 1.0 0.00 0.00 0.00 65 1014.1
20260905173011 91 277 1.0 2.0 0.00 0.00 0.00 67 1014.1
20260905172509 90 58 0.0 1.0 0.00 0.00 0.00 69 1014.2
20260905172006 88 354 1.0 1.0 0.00 0.00 0.00 72 1014.2
20260905171502 88 296 2.0 2.0 0.00 0.00 0.00 72 1014.3
20260905170958 88 268 3.0 3.0 0.00 0.00 0.00 72 1014.4
20260905170454 89 7 3.0 4.0 0.00 0.00 0.00 71 1014.4
20260905165953 90 315 2.0 4.0 0.00 0.00 0.00 69 1014.2
20260905165448 90 103 0.0 1.0 0.00 0.00 0.00 71 1014.4
20260905164943 89 107 0.0 1.0 0.00 0.00 0.00 69 1014.2
20260905164437 87 330 2.0 2.0 0.00 0.00 0.00 70 1014.6
20260905163932 86 14 1.0 2.0 0.00 0.00 0.00 76 1014.5
20260905163429 86 170 1.0 1.0 0.00 0.00 0.00 77 1014.6
20260905162926 87 277 4.0 4.0 0.00 0.00 0.00 74 1014.7
20260905162426 88 282 2.0 3.0 0.00 0.00 0.00 72 1014.7
20260905161921 90 203 1.0 4.0 0.00 0.00 0.00 68 1014.7
20260905161420 88 105 0.0 1.0 0.00 0.00 0.00 76 1014.6
20260905160918 86 92 0.0 0.0 0.00 0.00 0.00 80 1014.7
20260905160412 86 84 0.0 1.0 0.00 0.00 0.00 78 1014.7
20260905155912 86 94 1.0 2.0 0.00 0.00 0.00 75 1014.5
20260905155412 87 177 1.0 4.0 0.00 0.00 0.00 74 1014.6
20260905154910 88 281 2.0 7.0 0.00 0.00 0.00 71 1014.7
20260905154407 88 340 1.0 4.0 0.00 0.00 0.00 72 1014.6
20260905153902 87 250 2.0 6.0 0.00 0.00 0.00 75 1014.5
20260905153358 87 261 1.0 1.0 0.00 0.00 0.00 75 1014.6
20260905152858 87 276 1.0 2.0 0.00 0.00 0.00 75 1014.5
20260905152358 87 252 1.0 2.0 0.00 0.00 0.00 74 1014.6
20260905151853 87 264 2.0 3.0 0.00 0.00 0.00 74 1014.5
20260905151349 86 117 0.0 2.0 0.00 0.00 0.00 79 1014.5
20260905150848 86 197 2.0 2.0 0.00 0.00 0.00 78 1014.7
20260905150343 87 298 3.0 3.0 0.00 0.00 0.00 75 1014.5
20260905145840 89 215 2.0 3.0 0.00 0.00 0.00 73 1014.5
20260905145340 90 212 2.0 3.0 0.00 0.00 0.00 71 1014.5
20260905144839 88 97 1.0 2.0 0.00 0.00 0.00 76 1014.5
20260905144335 87 58 1.0 2.0 0.00 0.00 0.00 76 1014.6
20260905143833 87 226 1.0 1.0 0.00 0.00 0.00 78 1014.5
20260905143328 85 93 0.0 0.0 0.00 0.00 0.00 81 1014.7
20260905142827 86 317 1.0 2.0 0.00 0.00 0.00 78 1014.4
20260905142321 87 110 0.0 2.0 0.00 0.00 0.00 77 1014.5
20260905141817 88 204 2.0 2.0 0.00 0.00 0.00 77 1014.4
20260905141313 86 100 0.0 1.0 0.00 0.00 0.00 82 1014.7
20260905140809 87 269 1.0 4.0 0.00 0.00 0.00 79 1014.5
20260905140308 86 122 1.0 2.0 0.00 0.00 0.00 81 1014.5
20260905135807 86 92 0.0 0.0 0.00 0.00 0.00 81 1014.4
20260905135306 87 86 0.0 1.0 0.00 0.00 0.00 79 1014.2
20260905134804 87 103 0.0 0.0 0.00 0.00 0.00 80 1014.2
20260905134302 86 96 0.0 0.0 0.00 0.00 0.00 83 1014.3
20260905133757 87 123 0.0 1.0 0.00 0.00 0.00 81 1014.1
20260905133252 86 98 0.0 1.0 0.00 0.00 0.00 82 1014.3
20260905132751 86 93 0.0 0.0 0.00 0.00 0.00 85 1014.4
20260905132241 84 87 0.0 0.0 0.00 0.00 0.00 88 1014.3
20260905131735 83 86 0.0 1.0 0.00 0.00 0.00 94 1014.1
20260905131231 81 85 0.0 0.0 0.00 0.00 0.00 97 1014.2
20260905130726 80 84 0.0 0.0 0.00 0.00 0.00 97 1014.2
20260905130225 80 108 0.0 0.0 0.00 0.00 0.00 97 1014.2
20260905125720 79 103 0.0 0.0 0.00 0.00 0.00 98 1014.2
20260905125215 79 78 0.0 0.0 0.00 0.00 0.00 98 1014.3
20260905124712 79 105 0.0 0.0 0.00 0.00 0.00 98 1014.0
20260905124208 79 106 0.0 0.0 0.00 0.00 0.00 99 1014.1
20260905123708 78 83 0.0 0.0 0.00 0.00 0.00 98 1014.1
20260905123205 78 87 0.0 0.0 0.00 0.00 0.00 98 1014.1
20260905122704 78 64 0.0 0.0 0.00 0.00 0.00 99 1014.2
20260905122200 78 90 0.0 0.0 0.00 0.00 0.00 99 1014.1
20260905121700 77 107 0.0 0.0 0.00 0.00 0.00 98 1014.3
20260905121155 77 102 0.0 0.0 0.00 0.00 0.00 99 1014.0
20260905120654 77 110 0.0 0.0 0.00 0.00 0.00 99 1014.0
20260905120150 76 94 0.0 0.0 0.00 0.00 0.00 99 1014.0
20260905115649 76 95 0.0 0.0 0.00 0.00 0.00 99 1013.9
20260905115144 75 95 0.0 0.0 0.00 0.00 0.00 99 1013.9
20260905114644 75 95 0.0 0.0 0.00 0.00 0.00 99 1013.8
20260905114142 75 95 0.0 0.0 0.00 0.00 0.00 99 1013.8
20260905113637 75 95 0.0 0.0 0.00 0.00 0.00 98 1013.8
20260905113133 75 95 0.0 0.0 0.00 0.00 0.00 98 1013.6
20260905112627 76 98 0.0 0.0 0.00 0.00 0.00 98 1013.5
20260905112124 76 98 0.0 0.0 0.00 0.00 0.00 98 1013.7
20260905111623 76 91 0.0 0.0 0.00 0.00 0.00 98 1013.7
20260905111122 76 91 0.0 0.0 0.00 0.00 0.00 98 1013.7
20260905110622 76 92 0.0 0.0 0.00 0.00 0.00 98 1013.6
20260905110117 76 91 0.0 0.0 0.00 0.00 0.00 98 1013.5
20260905105612 76 89 0.0 0.0 0.00 0.00 0.00 98 1013.5
20260905105111 75 90 0.0 0.0 0.00 0.00 0.00 98 1013.6
20260905104607 75 90 0.0 0.0 0.00 0.00 0.00 98 1013.4
20260905104106 76 90 0.0 0.0 0.00 0.00 0.00 98 1013.4
20260905103556 76 97 0.0 0.0 0.00 0.00 0.00 98 1013.3
20260905103052 75 88 0.0 0.0 0.00 0.00 0.00 98 1013.5
20260905102547 76 86 0.0 0.0 0.00 0.00 0.00 98 1013.4
20260905102044 76 102 0.0 0.0 0.00 0.00 0.00 98 1013.4
20260905101542 76 83 0.0 0.0 0.00 0.00 0.00 98 1013.2
20260905101040 76 90 0.0 0.0 0.00 0.00 0.00 98 1013.4
20260905100532 76 89 0.0 0.0 0.00 0.00 0.00 98 1013.3
20260905100031 76 89 0.0 0.0 0.00 0.00 0.00 98 1013.4
20260905095526 76 103 0.0 0.0 0.00 0.00 0.00 98 1013.3
20260905095021 76 103 0.0 0.0 0.00 0.00 0.00 98 1013.4
20260905094516 76 103 0.0 0.0 0.00 0.00 0.00 98 1013.4
20260905094015 76 103 0.0 0.0 0.00 0.00 0.00 98 1013.4
20260905093510 76 45 0.0 0.0 0.00 0.00 0.00 98 1013.3
20260905093007 76 98 0.0 0.0 0.00 0.00 0.00 98 1013.4
20260905092506 76 98 0.0 0.0 0.00 0.00 0.00 98 1013.2
20260905092002 76 93 0.0 0.0 0.00 0.00 0.00 98 1013.2
20260905091501 76 92 0.0 0.0 0.00 0.00 0.00 98 1013.3
20260905090956 76 93 0.0 0.0 0.00 0.00 0.00 98 1013.3
20260905090451 76 93 0.0 0.0 0.00 0.00 0.00 98 1013.3
20260905085950 76 88 0.0 0.0 0.00 0.00 0.00 98 1013.2
20260905085450 76 88 0.0 0.0 0.00 0.00 0.00 98 1013.3
20260905084946 76 87 0.0 0.0 0.00 0.00 0.00 98 1013.4
20260905084445 76 90 0.0 0.0 0.00 0.00 0.00 98 1013.2
20260905083945 76 90 0.0 0.0 0.00 0.00 0.00 98 1013.1
20260905083441 76 91 0.0 0.0 0.00 0.00 0.00 98 1013.2
20260905082936 76 91 0.0 0.0 0.00 0.00 0.00 98 1013.1
20260905082432 76 90 0.0 0.0 0.00 0.00 0.00 98 1013.0
20260905081928 76 93 0.0 0.0 0.00 0.00 0.00 98 1012.9
20260905081427 76 92 0.0 0.0 0.00 0.00 0.00 98 1013.1
20260905080926 76 92 0.0 0.0 0.00 0.00 0.00 98 1013.1
20260905080421 76 85 0.0 0.0 0.00 0.00 0.00 98 1013.1
20260905075920 77 91 0.0 0.0 0.00 0.00 0.00 98 1012.9
20260905075415 76 77 0.0 0.0 0.00 0.00 0.00 98 1013.2
20260905074914 76 77 0.0 0.0 0.00 0.00 0.00 98 1013.2
20260905074410 76 82 0.0 0.0 0.00 0.00 0.00 98 1013.4
20260905073905 76 102 0.0 0.0 0.00 0.00 0.00 98 1013.2
20260905073400 76 102 0.0 0.0 0.00 0.00 0.00 98 1013.0
20260905072856 76 102 0.0 0.0 0.00 0.00 0.00 98 1013.1
20260905072350 76 105 0.0 0.0 0.00 0.00 0.00 98 1013.1
20260905071846 76 105 0.0 0.0 0.00 0.00 0.00 98 1013.1
20260905071343 76 105 0.0 0.0 0.00 0.00 0.00 97 1013.2
20260905070842 76 105 0.0 0.0 0.00 0.00 0.00 98 1012.9
20260905070339 76 105 0.0 0.0 0.00 0.00 0.00 98 1013.1
20260905065838 76 90 0.0 0.0 0.00 0.00 0.00 97 1013.1
20260905065336 76 93 0.0 0.0 0.00 0.00 0.00 97 1013.1
20260905064832 76 93 0.0 0.0 0.00 0.00 0.00 97 1013.0
20260905064328 76 93 0.0 0.0 0.00 0.00 0.00 97 1013.0
20260905063826 76 93 0.0 0.0 0.00 0.00 0.00 97 1012.9
20260905063323 76 93 0.0 0.0 0.00 0.00 0.00 97 1012.7
20260905062819 76 93 0.0 0.0 0.00 0.00 0.00 97 1012.7
20260905062318 77 93 0.0 0.0 0.00 0.00 0.00 97 1012.8
20260905061814 77 93 0.0 0.0 0.00 0.00 0.00 97 1013.2
20260905061313 77 93 0.0 0.0 0.00 0.00 0.00 97 1013.1
20260905060808 77 89 0.0 0.0 0.00 0.00 0.00 97 1013.2
20260905060304 77 89 0.0 0.0 0.00 0.00 0.00 97 1013.1
20260905055803 77 89 0.0 0.0 0.00 0.00 0.00 97 1013.2
20260905055258 77 89 0.0 0.0 0.00 0.00 0.00 97 1013.2
20260905054753 77 89 0.0 0.0 0.00 0.00 0.00 97 1013.2
20260905054250 77 102 0.0 0.0 0.00 0.00 0.00 97 1013.1
20260905053749 77 102 0.0 0.0 0.00 0.00 0.00 97 1013.2
20260905053244 77 102 0.0 0.0 0.00 0.00 0.00 97 1013.1
20260905052743 77 102 0.0 0.0 0.00 0.00 0.00 97 1013.2
20260905052238 77 103 0.0 0.0 0.00 0.00 0.00 96 1013.3
20260905051738 78 110 0.0 0.0 0.00 0.00 0.00 96 1013.4
20260905051235 78 95 0.0 0.0 0.00 0.00 0.00 96 1013.3
20260905050731 78 97 0.0 0.0 0.00 0.00 0.00 96 1013.5
20260905050227 78 102 0.0 0.0 0.00 0.00 0.00 96 1013.4
20260905045727 78 101 0.0 0.0 0.00 0.03 0.03 96 1013.7
20260905045223 78 101 0.0 0.0 0.00 0.03 0.03 96 1013.6
20260905044717 78 101 0.0 0.0 0.00 0.03 0.03 96 1013.7
20260905044213 78 102 0.0 0.0 0.00 0.03 0.03 96 1013.8
20260905043712 78 130 0.0 0.0 0.00 0.03 0.03 96 1013.9
20260905043207 77 89 0.0 0.0 0.00 0.03 0.03 96 1014.0
20260905042707 78 81 0.0 0.0 0.00 0.03 0.03 96 1013.9
20260905042206 78 81 0.0 0.0 0.00 0.03 0.03 96 1013.8
20260905041702 78 81 0.0 0.0 0.00 0.03 0.03 96 1013.9
20260905041157 78 81 0.0 0.0 0.00 0.03 0.03 96 1014.1
20260905040652 78 81 0.0 0.0 0.00 0.03 0.03 95 1013.9
20260905040151 78 81 0.0 0.0 0.00 0.03 0.03 95 1013.9
20260905035645 78 81 0.0 0.0 0.00 0.03 0.03 95 1014.2
20260905035142 78 43 0.0 0.0 0.00 0.03 0.03 95 1014.2
20260905034638 78 90 0.0 1.0 0.00 0.03 0.03 95 1014.2
20260905034137 78 101 0.0 0.0 0.00 0.03 0.03 95 1014.4
20260905033636 78 113 0.0 0.0 0.00 0.03 0.03 95 1014.4
20260905033132 78 113 0.0 0.0 0.00 0.03 0.03 95 1014.3
20260905032632 78 107 0.0 0.0 0.00 0.03 0.03 95 1014.3
20260905032131 78 109 0.0 0.0 0.00 0.03 0.03 95 1014.2
20260905031628 78 108 0.0 0.0 0.00 0.03 0.03 95 1014.4
20260905031124 78 109 0.0 0.0 0.00 0.03 0.03 95 1014.3
20260905030624 78 113 0.0 0.0 0.00 0.03 0.03 95 1014.3
20260905030119 78 112 0.0 0.0 0.00 0.03 0.03 95 1014.2
20260905025614 78 104 0.0 1.0 0.00 0.03 0.03 95 1014.5
20260905025109 78 114 0.0 1.0 0.00 0.03 0.03 94 1014.5
20260905024605 78 88 0.0 0.0 0.00 0.03 0.03 94 1014.6
20260905024100 78 88 0.0 0.0 0.00 0.03 0.03 94 1014.6
20260905023555 78 87 0.0 0.0 0.00 0.03 0.03 94 1014.6
20260905023050 79 86 0.0 0.0 0.00 0.03 0.03 94 1014.7
20260905022549 79 86 0.0 0.0 0.00 0.03 0.03 94 1014.5
20260905022045 78 86 0.0 0.0 0.00 0.03 0.03 94 1014.6
20260905021544 79 86 0.0 0.0 0.00 0.03 0.03 94 1014.4
20260905021040 79 88 0.0 0.0 0.00 0.03 0.03 93 1014.4
20260905020539 79 91 0.0 0.0 0.00 0.03 0.03 93 1014.3
20260905020035 79 91 0.0 0.0 0.00 0.03 0.03 93 1014.2
20260905015532 79 91 0.0 0.0 0.00 0.03 0.03 92 1014.2
20260905015027 79 98 0.0 0.0 0.00 0.03 0.03 92 1014.0
20260905014522 79 98 0.0 0.0 0.00 0.03 0.03 92 1014.0
20260905014018 80 98 0.0 0.0 0.00 0.03 0.03 92 1014.0
20260905013514 80 98 0.0 0.0 0.00 0.03 0.03 91 1014.0
20260905013009 80 69 0.0 0.0 0.00 0.03 0.03 91 1014.0
20260905012503 80 100 0.0 0.0 0.00 0.03 0.03 91 1014.2
20260905012001 80 100 0.0 0.0 0.00 0.03 0.03 91 1014.1
20260905011456 80 59 0.0 1.0 0.00 0.03 0.03 91 1014.1
20260905010951 80 100 0.0 0.0 0.00 0.03 0.03 91 1014.1
20260905010451 80 93 0.0 0.0 0.00 0.03 0.03 91 1014.2
20260905005947 80 82 0.0 0.0 0.00 0.03 0.03 91 1013.9
20260905005443 80 93 0.0 0.0 0.00 0.03 0.03 90 1013.7
20260905004938 80 93 0.0 0.0 0.00 0.03 0.03 90 1013.8
20260905004433 80 81 0.0 0.0 0.00 0.03 0.03 90 1013.8